User: anonymous   Login
Location: Kuppenheim
(48.8299°N, 8.2568°E)
Time: 11:12:05
(UTC+00:00)
Language:

Cosmos 1076 Rocket - Orbit

View from above orbital plane
View from above orbital plane
View from above satellite
View from above satellite

Ground track
Ground track

The orbit data is extracted from the following two-line orbital elements,

1 11267U 79011B   21260.71299123  .00000111  00000-0  90868-5 0  9999
2 11267  82.5271 202.5634 0018437 101.5251 258.8038 14.89039105285430
Epoch (UTC): 17 September 2021 17:06:42
Eccentricity: 0.0018437
inclination: 82.5271°
perigee height: 588 km
apogee height: 614 km
right ascension of ascending node: 202.5634°
argument of perigee: 101.5251°
revolutions per day: 14.89039105
mean anomaly at epoch: 258.8038°
orbit number at epoch: 28543

The dashed part of the orbit path shows where the satellite is in the earth's shadow,  

DLR